"Period start","avg(HW err(1)/warn(2) (#))","avg(Visibility (m))","avg(Weather code (#))","avg(Precip intensity (mm/h))","min(HW err(1)/warn(2) (#))","max(HW err(1)/warn(2) (#))","std(HW err(1)/warn(2) (#))","med(HW err(1)/warn(2) (#))","min(Visibility (m))","max(Visibility (m))","std(Visibility (m))","med(Visibility (m))","min(Weather code (#))","max(Weather code (#))","std(Weather code (#))","med(Weather code (#))","min(Precip intensity (mm/h))","max(Precip intensity (mm/h))","std(Precip intensity (mm/h))","med(Precip intensity (mm/h))"
2014-07-23 00:00:00,0,46667,0,0.00,0,0,0,0,40434,50000,3413,47472,0,0,0,0,0.00,0.00,0.00,0.00
2014-07-23 00:10:00,0,41798,0,0.00,0,0,0,0,29215,49646,6986,44508,0,0,0,0,0.00,0.00,0.00,0.00
2014-07-23 00:20:00,0,43309,0,0.00,0,0,0,0,35341,49632,4978,44620,0,0,0,0,0.00,0.00,0.00,0.00
2014-07-23 00:30:00,0,45599,0,0.00,0,0,0,0,29351,50000,6926,50000,0,0,0,0,0.00,0.00,0.00,0.00
2014-07-23 00:40:00,0,41972,0,0.00,0,0,0,0,39171,46527,2107,42012,0,0,0,0,0.00,0.00,0.00,0.00
2014-07-23 00:50:00,0,40907,0,0.00,0,0,0,0,22458,50000,9536,44071,0,0,0,0,0.00,0.00,0.00,0.00
2014-07-23 01:00:00,0,44018,0,0.00,0,0,0,0,26991,50000,7791,47950,0,0,0,0,0.00,0.00,0.00,0.00
2014-07-23 01:10:00,0,42945,0,0.00,0,0,0,0,31935,50000,6615,42528,0,0,0,0,0.00,0.00,0.00,0.00
2014-07-23 01:20:00,0,44867,0,0.00,0,0,0,0,38157,50000,3432,44554,0,0,0,0,0.00,0.00,0.00,0.00
2014-07-23 01:30:00,0,44378,0,0.00,0,0,0,0,36441,50000,4267,45180,0,0,0,0,0.00,0.00,0.00,0.00
2014-07-23 01:40:00,0,45382,0,0.00,0,0,0,0,36513,50000,4797,47876,0,0,0,0,0.00,0.00,0.00,0.00
2014-07-23 01:50:00,0,41692,0,0.00,0,0,0,0,31409,50000,6441,40380,0,0,0,0,0.00,0.00,0.00,0.00
2014-07-23 02:00:00,0,41737,0,0.00,0,0,0,0,24962,50000,7283,42038,0,0,0,0,0.00,0.00,0.00,0.00
2014-07-23 02:10:00,0,44604,0,0.00,0,0,0,0,38051,50000,4691,46026,0,0,0,0,0.00,0.00,0.00,0.00
2014-07-23 02:20:00,0,45606,0,0.00,0,0,0,0,35402,50000,5411,49502,0,0,0,0,0.00,0.00,0.00,0.00
2014-07-23 02:30:00,0,41619,0,0.00,0,0,0,0,24141,50000,8236,43677,0,0,0,0,0.00,0.00,0.00,0.00
2014-07-23 02:40:00,0,43116,0,0.00,0,0,0,0,32231,50000,6040,44033,0,0,0,0,0.00,0.00,0.00,0.00
2014-07-23 02:50:00,0,40473,0,0.00,0,0,0,0,33186,50000,5367,39285,0,0,0,0,0.00,0.00,0.00,0.00
2014-07-23 03:00:00,0,41602,0,0.00,0,0,0,0,28630,50000,8945,44752,0,0,0,0,0.00,0.00,0.00,0.00
2014-07-23 03:10:00,0,47585,0,0.00,0,0,0,0,37676,50000,3691,48933,0,0,0,0,0.00,0.00,0.00,0.00
2014-07-23 03:20:00,0,47672,0,0.00,0,0,0,0,43954,50000,2363,48248,0,0,0,0,0.00,0.00,0.00,0.00
2014-07-23 03:30:00,0,44698,0,0.00,0,0,0,0,33850,50000,5783,46788,0,0,0,0,0.00,0.00,0.00,0.00
2014-07-23 03:40:00,0,47498,0,0.00,0,0,0,0,41610,50000,3061,49680,0,0,0,0,0.00,0.00,0.00,0.00
2014-07-23 03:50:00,0,47439,0,0.00,0,0,0,0,40884,50000,3042,48786,0,0,0,0,0.00,0.00,0.00,0.00
2014-07-23 04:00:00,0,45251,0,0.00,0,0,0,0,32091,50000,5342,46253,0,0,0,0,0.00,0.00,0.00,0.00
2014-07-23 04:10:00,0,46763,0,0.00,0,2,1,0,40770,50000,3563,48620,0,0,0,0,0.00,0.00,0.00,0.00
2014-07-23 04:20:00,0,48225,0,0.00,0,0,0,0,41546,50000,2797,50000,0,0,0,0,0.00,0.00,0.00,0.00
2014-07-23 04:30:00,0,46370,0,0.00,0,0,0,0,37582,50000,4449,47887,0,0,0,0,0.00,0.00,0.00,0.00
2014-07-23 04:40:00,0,42658,0,0.00,0,0,0,0,35718,49917,5028,41557,0,0,0,0,0.00,0.00,0.00,0.00
2014-07-23 04:50:00,0,48739,0,0.00,0,0,0,0,42812,50000,2137,50000,0,0,0,0,0.00,0.00,0.00,0.00
2014-07-23 05:00:00,0,48982,0,0.00,0,0,0,0,43811,50000,2094,50000,0,0,0,0,0.00,0.00,0.00,0.00
2014-07-23 05:10:00,0,49201,0,0.00,0,0,0,0,44346,50000,1656,49945,0,0,0,0,0.00,0.00,0.00,0.00
2014-07-23 05:20:00,0,47856,0,0.00,0,0,0,0,38764,50000,3438,49734,0,0,0,0,0.00,0.00,0.00,0.00
2014-07-23 05:30:00,0,48764,0,0.00,0,0,0,0,45567,50000,1643,49610,0,0,0,0,0.00,0.00,0.00,0.00
2014-07-23 05:40:00,0,48068,0,0.00,0,0,0,0,40583,50000,2668,48638,0,0,0,0,0.00,0.00,0.00,0.00
2014-07-23 05:50:00,0,49358,0,0.00,0,0,0,0,44835,50000,1531,50000,0,0,0,0,0.00,0.00,0.00,0.00
2014-07-23 06:00:00,0,46479,0,0.00,0,0,0,0,38895,50000,3674,47287,0,0,0,0,0.00,0.00,0.00,0.00
2014-07-23 06:10:00,0,49514,0,0.00,0,0,0,0,46878,50000,960,50000,0,0,0,0,0.00,0.00,0.00,0.00
2014-07-23 06:20:00,0,48831,0,0.00,0,0,0,0,45691,50000,1640,50000,0,0,0,0,0.00,0.00,0.00,0.00
2014-07-23 06:30:00,0,49900,0,0.00,0,0,0,0,49497,50000,200,50000,0,0,0,0,0.00,0.00,0.00,0.00
2014-07-23 06:40:00,0,47481,0,0.00,0,0,0,0,37428,50000,3755,48973,0,0,0,0,0.00,0.00,0.00,0.00
2014-07-23 06:50:00,0,47537,0,0.00,0,0,0,0,42687,50000,2859,48727,0,0,0,0,0.00,0.00,0.00,0.00
2014-07-23 07:00:00,0,50000,0,0.00,0,0,0,0,49996,50000,1,50000,0,0,0,0,0.00,0.00,0.00,0.00
2014-07-23 07:10:00,0,49549,0,0.00,0,0,0,0,47416,50000,797,50000,0,0,0,0,0.00,0.00,0.00,0.00
2014-07-23 07:20:00,0,48346,0,0.00,0,0,0,0,40708,50000,2916,50000,0,0,0,0,0.00,0.00,0.00,0.00
2014-07-23 07:30:00,0,48455,0,0.00,0,0,0,0,41137,50000,2764,50000,0,0,0,0,0.00,0.00,0.00,0.00
2014-07-23 07:40:00,0,49551,0,0.00,0,0,0,0,45512,50000,1346,50000,0,0,0,0,0.00,0.00,0.00,0.00
2014-07-23 07:50:00,0,48993,0,0.00,0,0,0,0,44426,50000,1943,50000,0,0,0,0,0.00,0.00,0.00,0.00
2014-07-23 08:00:00,0,46234,0,0.00,0,0,0,0,35963,50000,5115,50000,0,0,0,0,0.00,0.00,0.00,0.00
2014-07-23 08:10:00,0,49651,0,0.00,0,0,0,0,47677,50000,745,50000,0,0,0,0,0.00,0.00,0.00,0.00
2014-07-23 08:20:00,0,50000,0,0.00,0,0,0,0,50000,50000,0,50000,0,0,0,0,0.00,0.00,0.00,0.00
2014-07-23 08:30:00,0,47584,0,0.00,0,0,0,0,41409,50000,3335,50000,0,0,0,0,0.00,0.00,0.00,0.00
2014-07-23 08:40:00,0,49723,0,0.00,0,0,0,0,47771,50000,670,50000,0,0,0,0,0.00,0.00,0.00,0.00
2014-07-23 08:50:00,0,49576,0,0.00,0,0,0,0,45756,50000,1273,50000,0,0,0,0,0.00,0.00,0.00,0.00
2014-07-23 09:00:00,0,49157,0,0.00,0,0,0,0,45934,50000,1320,49916,0,0,0,0,0.00,0.00,0.00,0.00
2014-07-23 09:10:00,0,49813,0,0.00,0,0,0,0,48521,50000,446,50000,0,0,0,0,0.00,0.00,0.00,0.00
2014-07-23 09:20:00,0,50000,0,0.00,0,0,0,0,50000,50000,0,50000,0,0,0,0,0.00,0.00,0.00,0.00
2014-07-23 09:30:00,0,48267,0,0.00,0,0,0,0,43913,50000,2310,49797,0,0,0,0,0.00,0.00,0.00,0.00
2014-07-23 09:40:00,0,48343,0,0.00,0,0,0,0,42978,50000,2520,50000,0,0,0,0,0.00,0.00,0.00,0.00
2014-07-23 09:50:00,0,49712,0,0.00,0,0,0,0,48229,50000,594,50000,0,0,0,0,0.00,0.00,0.00,0.00
2014-07-23 10:00:00,0,49927,0,0.00,0,0,0,0,49627,50000,141,50000,0,0,0,0,0.00,0.00,0.00,0.00
2014-07-23 10:10:00,0,50000,0,0.00,0,0,0,0,50000,50000,0,50000,0,0,0,0,0.00,0.00,0.00,0.00
2014-07-23 10:20:00,0,49667,0,0.00,0,0,0,0,47819,50000,705,50000,0,0,0,0,0.00,0.00,0.00,0.00
2014-07-23 10:30:00,0,49225,0,0.00,0,0,0,0,46455,50000,1200,49910,0,0,0,0,0.00,0.00,0.00,0.00
2014-07-23 10:40:00,0,46724,0,0.00,0,0,0,0,38006,50000,4349,49838,0,0,0,0,0.00,0.00,0.00,0.00
2014-07-23 10:50:00,0,47610,0,0.00,0,0,0,0,43966,50000,2493,48094,0,0,0,0,0.00,0.00,0.00,0.00
2014-07-23 11:00:00,0,48839,0,0.00,0,0,0,0,45269,50000,1645,50000,0,0,0,0,0.00,0.00,0.00,0.00
2014-07-23 11:10:00,0,48454,0,0.00,0,0,0,0,43085,50000,2409,50000,0,0,0,0,0.00,0.00,0.00,0.00
2014-07-23 11:20:00,1,41349,0,0.00,0,2,1,2,30587,50000,6293,40822,0,0,0,0,0.00,0.00,0.00,0.00
2014-07-23 11:30:00,1,42507,0,0.00,0,2,1,0,29243,50000,8187,46685,0,0,0,0,0.00,0.00,0.00,0.00
2014-07-23 11:40:00,0,48990,0,0.00,0,0,0,0,43212,50000,2005,50000,0,0,0,0,0.00,0.00,0.00,0.00
2014-07-23 11:50:00,1,49284,0,0.00,0,2,1,0,46684,50000,1288,50000,0,0,0,0,0.00,0.00,0.00,0.00
2014-07-23 12:00:00,0,49287,0,0.00,0,0,0,0,46630,50000,1065,50000,0,0,0,0,0.00,0.00,0.00,0.00
2014-07-23 12:10:00,0,50000,0,0.00,0,0,0,0,50000,50000,0,50000,0,0,0,0,0.00,0.00,0.00,0.00
2014-07-23 12:20:00,0,50000,0,0.00,0,0,0,0,50000,50000,0,50000,0,0,0,0,0.00,0.00,0.00,0.00
2014-07-23 12:30:00,0,50000,0,0.00,0,0,0,0,50000,50000,0,50000,0,0,0,0,0.00,0.00,0.00,0.00
2014-07-23 12:40:00,0,50000,0,0.00,0,0,0,0,50000,50000,0,50000,0,0,0,0,0.00,0.00,0.00,0.00
2014-07-23 12:50:00,0,50000,0,0.00,0,0,0,0,50000,50000,0,50000,0,0,0,0,0.00,0.00,0.00,0.00
2014-07-23 13:00:00,0,50000,0,0.00,0,0,0,0,50000,50000,0,50000,0,0,0,0,0.00,0.00,0.00,0.00
2014-07-23 13:10:00,0,50000,0,0.00,0,0,0,0,50000,50000,0,50000,0,0,0,0,0.00,0.00,0.00,0.00
2014-07-23 13:20:00,0,50000,0,0.00,0,0,0,0,50000,50000,0,50000,0,0,0,0,0.00,0.00,0.00,0.00
2014-07-23 13:30:00,0,50000,0,0.00,0,0,0,0,50000,50000,0,50000,0,0,0,0,0.00,0.00,0.00,0.00
2014-07-23 13:40:00,0,50000,0,0.00,0,0,0,0,50000,50000,0,50000,0,0,0,0,0.00,0.00,0.00,0.00
2014-07-23 13:50:00,0,50000,0,0.00,0,0,0,0,50000,50000,0,50000,0,0,0,0,0.00,0.00,0.00,0.00
2014-07-23 14:00:00,0,50000,0,0.00,0,0,0,0,50000,50000,0,50000,0,0,0,0,0.00,0.00,0.00,0.00
2014-07-23 14:10:00,0,49932,0,0.00,0,0,0,0,49316,50000,205,50000,0,0,0,0,0.00,0.00,0.00,0.00
2014-07-23 14:20:00,0,50000,0,0.00,0,0,0,0,50000,50000,0,50000,0,0,0,0,0.00,0.00,0.00,0.00
2014-07-23 14:30:00,0,50000,0,0.00,0,0,0,0,50000,50000,0,50000,0,0,0,0,0.00,0.00,0.00,0.00
2014-07-23 14:40:00,0,50000,0,0.00,0,0,0,0,50000,50000,0,50000,0,0,0,0,0.00,0.00,0.00,0.00
2014-07-23 14:50:00,0,50000,0,0.00,0,0,0,0,50000,50000,0,50000,0,0,0,0,0.00,0.00,0.00,0.00
"Period start","avg(HW err(1)/warn(2) (#))","avg(Visibility (m))","avg(Weather code (#))","avg(Precip intensity (mm/h))","min(HW err(1)/warn(2) (#))","max(HW err(1)/warn(2) (#))","std(HW err(1)/warn(2) (#))","med(HW err(1)/warn(2) (#))","min(Visibility (m))","max(Visibility (m))","std(Visibility (m))","med(Visibility (m))","min(Weather code (#))","max(Weather code (#))","std(Weather code (#))","med(Weather code (#))","min(Precip intensity (mm/h))","max(Precip intensity (mm/h))","std(Precip intensity (mm/h))","med(Precip intensity (mm/h))"
2014-07-23 19:00:00,2,49902,26,0.02,2,2,0,2,49457,50000,172,50000,0,51,22,40,0.00,0.10,0.03,0.00
2014-07-23 19:10:00,2,49758,51,0.13,2,2,0,2,48715,50000,485,50000,51,51,0,51,0.05,0.35,0.09,0.12
2014-07-23 19:20:00,1,48522,51,0.10,0,2,1,1,43771,50000,2008,49265,51,51,0,51,0.00,0.20,0.05,0.10
2014-07-23 19:30:00,0,48983,11,0.00,0,0,0,0,45980,50000,1523,50000,0,61,23,0,0.00,0.00,0.00,0.00
2014-07-23 19:40:00,0,49266,0,0.00,0,0,0,0,46566,50000,1242,50000,0,0,0,0,0.00,0.00,0.00,0.00
2014-07-23 19:50:00,0,48845,0,0.00,0,0,0,0,41896,50000,2475,50000,0,0,0,0,0.00,0.00,0.00,0.00
2014-07-23 20:00:00,0,48659,48,0.15,0,0,0,0,40416,50000,2813,49725,0,61,16,51,0.00,0.25,0.07,0.15
2014-07-23 20:10:00,0,49130,54,0.55,0,0,0,0,45964,50000,1362,50000,51,61,5,51,0.15,1.30,0.37,0.45
2014-07-23 20:20:00,0,48628,51,0.29,0,0,0,0,43503,50000,1886,49246,51,51,0,51,0.15,0.55,0.13,0.28
2014-07-23 20:30:00,0,49225,51,0.12,0,0,0,0,46050,50000,1303,50000,51,51,0,51,0.00,0.45,0.12,0.10
2014-07-23 20:40:00,0,50000,51,0.09,0,0,0,0,50000,50000,0,50000,51,51,0,51,0.00,0.20,0.06,0.08
2014-07-23 20:50:00,0,50000,54,0.05,0,0,0,0,50000,50000,0,50000,51,61,5,51,0.00,0.15,0.05,0.05
2014-07-23 21:00:00,0,49553,51,0.09,0,0,0,0,46762,50000,964,50000,51,51,0,51,0.00,0.20,0.06,0.10
2014-07-23 21:10:00,0,50000,56,0.09,0,0,0,0,50000,50000,0,50000,51,61,5,56,0.00,0.35,0.10,0.05
2014-07-23 21:20:00,0,49705,54,0.06,0,0,0,0,47480,50000,753,50000,51,61,5,51,0.00,0.15,0.06,0.05
2014-07-23 21:30:00,0,49837,58,0.03,0,0,0,0,48948,50000,342,50000,51,61,5,61,0.00,0.05,0.02,0.05
2014-07-23 21:40:00,0,49861,52,0.07,0,0,0,0,48610,50000,417,50000,51,61,3,51,0.00,0.15,0.04,0.08
2014-07-23 21:50:00,0,50000,54,0.04,0,0,0,0,50000,50000,0,50000,51,61,5,51,0.00,0.10,0.04,0.05
2014-07-23 22:00:00,0,49895,5,0.00,0,0,0,0,49576,50000,165,50000,0,51,15,0,0.00,0.00,0.00,0.00
2014-07-23 22:10:00,0,49747,0,0.00,0,2,1,0,48339,50000,532,50000,0,0,0,0,0.00,0.00,0.00,0.00
2014-07-23 22:20:00,0,49963,0,0.00,0,0,0,0,49628,50000,112,50000,0,0,0,0,0.00,0.00,0.00,0.00
2014-07-23 22:30:00,0,49911,0,0.00,0,0,0,0,49111,50000,267,50000,0,0,0,0,0.00,0.00,0.00,0.00
2014-07-23 22:40:00,0,49686,0,0.00,0,0,0,0,47412,50000,776,50000,0,0,0,0,0.00,0.00,0.00,0.00
2014-07-23 22:50:00,0,49960,0,0.00,0,0,0,0,49680,50000,96,50000,0,0,0,0,0.00,0.00,0.00,0.00
2014-07-23 23:00:00,0,49871,0,0.00,0,0,0,0,48951,50000,315,50000,0,0,0,0,0.00,0.00,0.00,0.00
2014-07-23 23:10:00,0,49919,0,0.00,0,0,0,0,49189,50000,243,50000,0,0,0,0,0.00,0.00,0.00,0.00
2014-07-23 23:20:00,0,49952,0,0.00,0,0,0,0,49734,50000,96,50000,0,0,0,0,0.00,0.00,0.00,0.00
2014-07-23 23:30:00,0,50000,0,0.00,0,0,0,0,50000,50000,0,50000,0,0,0,0,0.00,0.00,0.00,0.00
2014-07-23 23:40:00,0,48210,0,0.00,0,0,0,0,39404,50000,3325,50000,0,0,0,0,0.00,0.00,0.00,0.00
2014-07-23 23:50:00,0,49730,0,0.00,0,0,0,0,47303,50000,809,50000,0,0,0,0,0.00,0.00,0.00,0.00
